Terug naar catalogus

COURIER 1B

ActiefMilitairLEO
NORAD 58·PAYLOAD·🇺🇸 United States

Gelanceerd Oct 4, 1960 vanaf Cape Canaveral Space Force Station

Loading…

Volgende Passages (komende 24 uur)

TLE

VersSource: Space-Track

Epoch: Sep 14, 2026, 18:03 UTC

1 00058U 60013A   26257.75214930  .00000101  00000-0  19392-4 0  9996
2 00058  28.3291  45.2597 0164886 229.4838 129.1237 13.46432753246141

Volg COURIER 1B in realtime met AllMySat

Download on the App Store